CAPE
0 0 0 0 0 0 0 0 0 529 744 674 738 896 921 579 632 29 0 0 0 0 208 451 468 410 319 126 45 8 10 5 7
0 0 0 0 0 0 0 0 0 114 319 683 676 877 867 603 723 485 17 0 0 31 42 64 192 258 204 102 25 11 8 6 11
0 0 0 0 0 0 0 0 0 0 0 48 347 670 609 531 765 741 298 27 0 65 96 221 316 241 138 59 12 10 13 15 19
0 0 0 0 0 0 0 0 0 0 0 0 0 8 394 528 574 591 623 294 23 0 20 404 551 344 194 38 14 10 18 16 36
0 0 0 0 0 0 0 0 0 0 0 0 0 0 0 656 613 612 652 291 412 116 8 489 653 607 399 254 296 29 11 18 29
0 0 0 0 0 0 0 0 0 0 0 0 0 0 0 0 485 621 541 544 884 852 200 624 1070 1021 844 662 536 137 30 14 33
0 0 0 0 0 0 0 0 0 0 0 0 0 0 0 0 0 77 505 760 954 1022 855 878 1221 1326 1052 743 764 357 29 12 32
0 0 0 0 0 0 0 0 0 0 0 0 0 0 0 0 0 0 0 192 936 937 906 1022 1044 1342 1343 1011 788 735 286 23 21
0 0 0 0 0 0 0 0 0 0 0 0 0 0 0 0 0 0 0 0 51 567 794 1030 1027 983 1355 1222 1018 852 586 202 13
0 0 0 0 0 0 0 0 0 0 0 0 0 0 0 0 0 0 0 0 0 78 457 790 1079 1064 1054 1156 1217 1030 825 521 392
0 0 0 0 0 0 0 0 0 0 0 0 0 0 0 0 0 0 0 0 0 0 368 607 1066 1065 1178 1118 1270 1186 970 862 564
0 0 0 0 0 0 0 0 0 0 0 0 0 0 0 0 0 0 0 0 0 50 338 412 527 951 1103 1269 1160 1173 1010 898 708
0 0 0 0 0 0 0 0 0 0 1 0 0 0 0 0 0 0 0 0 0 241 450 450 536 637 813 1013 1035 847 1049 832 887
0 0 0 0 0 0 0 0 0 0 1 0 0 0 0 0 0 0 0 0 23 367 428 520 568 433 529 906 982 863 938 812 927
0 0 0 0 0 0 0 0 0 0 3 1 0 0 0 0 0 0 0 1 191 458 474 544 682 412 408 533 589 1038 770 345 258
0 0 0 0 0 0 0 0 0 0 0 6 1 0 0 0 0 40 74 117 304 525 772 763 930 773 380 347 441 430 382 313 106
0 0 0 0 0 0 0 0 0 0 0 0 2 1 0 0 0 56 114 230 433 369 451 831 652 465 302 197 340 256 142 107 150
0 0 0 0 0 0 0 0 0 0 0 0 6 1 0 0 1 32 60 99 123 175 224 238 349 259 161 182 26 2 5 34 124
0 0 0 0 0 0 0 0 0 0 0 0 0 4 2 1 5 8 16 48 71 46 49 80 80 116 92 48 5 4 16 123 162
0 0 0 0 0 0 0 0 0 0 0 0 0 0 1 6 3 3 13 35 8 33 22 27 24 41 29 3 0 5 15 22 101
CIN
0 0 0 0 0 0 0 0 -3 0 -1 0 0 0 -1 -8 0 -99 0 0 0 -2 -6 0 0 0 0 -21 -79 0 0 0 -1
0 0 0 0 0 0 0 0 0 -19 -1 0 0 0 -2 0 0 0 -124 0 0 -94 -54 -31 -15 -4 -6 -41 -133 0 -1 0 -1
0 0 0 0 0 0 0 0 0 0 0 -20 -12 -1 -2 0 0 0 -8 -35 0 -51 -34 -5 0 -4 -33 -72 0 0 -1 -1 -1
0 0 0 0 0 0 0 0 0 0 0 0 0 -12 -4 0 0 0 0 -3 -131 0 -59 0 0 0 -6 -75 0 0 -1 0 -4
0 0 0 0 0 0 0 0 0 0 0 0 0 0 0 0 0 0 0 -15 -6 -46 -83 0 0 0 0 -2 0 -19 0 0 -3
0 0 0 0 0 0 0 0 0 0 0 0 0 0 0 0 -27 -4 -11 -1 0 0 -31 0 0 0 0 0 0 -12 -32 0 0
0 0 0 0 0 0 0 0 0 0 0 0 0 0 0 0 0 -175 -26 0 0 0 0 0 0 0 0 0 0 0 -34 0 -1
0 0 0 0 0 0 0 0 0 0 0 0 0 0 0 0 0 0 0 -86 0 0 0 0 0 0 0 0 0 0 0 -38 -4
0 0 0 0 0 0 0 0 0 0 0 0 0 0 0 0 0 0 0 0 -144 -1 0 0 0 0 0 0 0 0 0 -1 0
0 0 0 0 0 0 0 0 0 0 0 0 0 0 0 0 0 0 0 0 0 -43 0 0 0 0 0 0 0 0 0 0 0
0 0 0 0 0 0 0 0 0 0 0 0 0 0 0 0 0 0 0 0 0 0 0 0 0 0 0 0 0 0 0 0 0
0 0 0 0 0 0 0 0 0 0 0 0 0 0 0 0 0 0 0 0 0 -20 0 0 -3 0 0 0 0 0 0 0 0
0 0 0 0 0 0 0 0 0 0 0 0 0 0 0 0 0 0 0 0 0 -6 -7 -9 -9 -13 0 0 0 0 0 0 0
0 0 0 0 0 0 0 0 0 0 0 0 0 0 0 0 0 0 0 0 -26 -7 -13 -42 -25 -8 -1 -5 0 0 0 0 0
0 0 0 0 0 0 0 0 0 0 0 0 0 0 0 0 0 0 0 -1 -13 -14 -16 -24 -15 -42 -53 0 -8 0 0 -2 0
0 0 0 0 0 0 0 0 0 0 0 0 0 0 0 0 0 -2 0 -3 0 -8 -7 -6 -1 -10 -67 -2 -6 -14 0 0 -30
0 0 0 0 0 0 0 0 0 0 0 0 -1 0 0 0 0 -2 0 0 -1 -7 -12 0 0 -21 -31 -16 0 0 0 -6 -71
0 0 0 0 0 0 0 0 0 0 0 0 0 0 0 0 -7 -3 0 -3 -6 -6 0 0 0 0 -5 -1 -48 -36 -29 -128 -26
0 0 0 0 0 0 0 0 0 0 0 0 0 0 0 0 0 -20 -10 -7 -15 -10 -1 -1 -1 -3 -17 -49 -38 -8 -1 -40 -1
0 0 0 0 0 0 0 0 0 0 0 0 0 0 0 0 0 0 0 0 -20 -11 0 0 -81 -131 -133 0 0 0 0 0 -9
Wind_Speed
nan nan nan nan nan nan nan nan nan 23 20 20 19 19 21 23 22 nan nan nan nan nan 21 23 24 25 24 23 nan nan nan nan nan
nan nan nan nan nan nan nan nan nan 27 27 22 21 21 24 22 24 25 nan nan nan nan nan nan 22 24 25 24 nan nan nan nan nan
nan nan nan nan nan nan nan nan nan nan nan nan 25 21 23 25 25 26 28 nan nan nan nan 22 22 24 25 nan nan nan nan nan nan
nan nan nan nan nan nan nan nan nan nan nan nan nan nan 17 18 21 22 26 29 nan nan nan 21 22 26 26 nan nan nan nan nan nan
nan nan nan nan nan nan nan nan nan nan nan nan nan nan nan 18 19 22 22 22 23 25 nan 25 25 25 28 28 28 nan nan nan nan
nan nan nan nan nan nan nan nan nan nan nan nan nan nan nan nan 24 26 26 23 20 21 25 27 27 27 28 31 30 30 nan nan nan
nan nan nan nan nan nan nan nan nan nan nan nan nan nan nan nan nan nan 25 25 25 23 24 28 29 29 30 30 31 29 nan nan nan
nan nan nan nan nan nan nan nan nan nan nan nan nan nan nan nan nan nan nan 28 25 23 27 28 30 29 31 31 30 30 29 nan nan
nan nan nan nan nan nan nan nan nan nan nan nan nan nan nan nan nan nan nan nan nan 32 32 32 30 32 31 31 31 30 29 28 nan
nan nan nan nan nan nan nan nan nan nan nan nan nan nan nan nan nan nan nan nan nan nan 43 39 35 31 29 29 30 30 29 28 27
nan nan nan nan nan nan nan nan nan nan nan nan nan nan nan nan nan nan nan nan nan nan 51 48 46 37 28 25 28 29 28 28 28
nan nan nan nan nan nan nan nan nan nan nan nan nan nan nan nan nan nan nan nan nan nan 39 50 57 48 30 24 23 29 30 28 28
nan nan nan nan nan nan nan nan nan nan nan nan nan nan nan nan nan nan nan nan nan 38 39 45 55 57 47 33 17 21 31 30 28
nan nan nan nan nan nan nan nan nan nan nan nan nan nan nan nan nan nan nan nan nan 26 15 40 53 43 52 38 32 17 27 36 31
nan nan nan nan nan nan nan nan nan nan nan nan nan nan nan nan nan nan nan nan 27 14 12 28 48 52 58 43 41 12 25 19 50
nan nan nan nan nan nan nan nan nan nan nan nan nan nan nan nan nan nan nan 35 20 12 12 24 39 52 64 43 34 46 49 35 24
nan nan nan nan nan nan nan nan nan nan nan nan nan nan nan nan nan nan 36 26 17 6 20 31 38 46 45 56 43 53 35 28 32
nan nan nan nan nan nan nan nan nan nan nan nan nan nan nan nan nan nan nan nan 20 10 10 35 42 42 30 17 nan nan nan nan 31
nan nan nan nan nan nan nan nan nan nan nan nan nan nan nan nan nan nan nan nan nan nan nan nan nan 33 nan nan nan nan nan 22 54
nan nan nan nan nan nan nan nan nan nan nan nan nan nan nan nan nan nan nan nan nan nan nan nan nan nan nan nan nan nan nan nan 33
Wind_Direction
nan nan nan nan nan nan nan nan nan 268 277 286 286 286 293 299 298 nan nan nan nan nan 285 278 270 273 276 272 nan nan nan nan nan
nan nan nan nan nan nan nan nan nan 269 267 277 286 284 284 290 294 293 nan nan nan nan nan nan 280 272 272 273 nan nan nan nan nan
nan nan nan nan nan nan nan nan nan nan nan nan 263 275 287 286 293 293 286 nan nan nan nan 280 279 279 274 nan nan nan nan nan nan
nan nan nan nan nan nan nan nan nan nan nan nan nan nan 279 292 291 291 283 286 nan nan nan 277 282 280 277 nan nan nan nan nan nan
nan nan nan nan nan nan nan nan nan nan nan nan nan nan nan 299 307 304 296 302 302 294 nan 277 281 282 278 274 274 nan nan nan nan
nan nan nan nan nan nan nan nan nan nan nan nan nan nan nan nan 297 297 301 311 313 308 300 287 276 273 276 274 273 271 nan nan nan
nan nan nan nan nan nan nan nan nan nan nan nan nan nan nan nan nan nan 307 315 314 307 299 294 287 276 270 272 272 269 nan nan nan
nan nan nan nan nan nan nan nan nan nan nan nan nan nan nan nan nan nan nan 298 296 301 296 288 282 279 274 268 270 267 267 nan nan
nan nan nan nan nan nan nan nan nan nan nan nan nan nan nan nan nan nan nan nan nan 284 284 284 277 272 269 274 266 267 263 266 nan
nan nan nan nan nan nan nan nan nan nan nan nan nan nan nan nan nan nan nan nan nan nan 274 262 264 264 263 265 268 262 263 261 264
nan nan nan nan nan nan nan nan nan nan nan nan nan nan nan nan nan nan nan nan nan nan 269 252 242 245 250 254 266 262 258 259 258
nan nan nan nan nan nan nan nan nan nan nan nan nan nan nan nan nan nan nan nan nan nan 265 231 221 214 235 241 261 267 257 255 256
nan nan nan nan nan nan nan nan nan nan nan nan nan nan nan nan nan nan nan nan nan 293 251 222 212 203 182 207 229 268 257 255 257
nan nan nan nan nan nan nan nan nan nan nan nan nan nan nan nan nan nan nan nan nan 296 252 209 201 191 198 193 188 226 254 242 248
nan nan nan nan nan nan nan nan nan nan nan nan nan nan nan nan nan nan nan nan 347 344 213 197 194 198 199 201 173 211 229 265 233
nan nan nan nan nan nan nan nan nan nan nan nan nan nan nan nan nan nan nan 358 3 21 131 167 183 197 200 188 174 225 228 247 220
nan nan nan nan nan nan nan nan nan nan nan nan nan nan nan nan nan nan 3 7 359 13 157 178 187 192 202 219 221 200 233 241 275
nan nan nan nan nan nan nan nan nan nan nan nan nan nan nan nan nan nan nan nan 30 19 149 191 199 186 194 207 nan nan nan nan 277
nan nan nan nan nan nan nan nan nan nan nan nan nan nan nan nan nan nan nan nan nan nan nan nan nan 204 nan nan nan nan nan 279 252
nan nan nan nan nan nan nan nan nan nan nan nan nan nan nan nan nan nan nan nan nan nan nan nan nan nan nan nan nan nan nan nan 262